Location: Newark
(15.4608°S, 41.1635°W)
Time: 23:09:13
(UTC+00:00)

Transit 4A - Pass Details

Date: 08 March 2021
Orbit: 869 x 975 km, 66.8° (Epoch: 16 April)

Event Time Altitude Azimuth Distance (km) Brightness Sun altitude
Rises 22:53:28 0° 334° (NNW) 3,442 11.0 -26.9°
Reaches altitude 10° 22:55:56 10° 332° (NNW) 2,505 10.3 -27.5°
Maximum altitude 23:01:41 70° 249° (WSW) 923 7.9 -28.9°
Drops below altitude 10° 23:07:31 10° 165° (SSE) 2,538 10.2 -30.2°
Sets 23:10:02 0° 162° (SSE) 3,490 10.9 -30.8°
